Location: Dead Woman Crossing
(43.5369°N, 106.3228°W)
Time: 17:34:28
(UTC+00:00)

QB50P2 - Pass Details

Date: 25 June 2022
Orbit: 590 x 605 km, 97.9° (Epoch: 18 August)

Event Time Altitude Azimuth Distance (km) Brightness Sun altitude
Rises 07:06:15 0° 37° (NE) 2,854 ? -23.1°
Reaches altitude 10° 07:10:37 10° 80° (E) 1,948 ? -23.1°
Maximum altitude 07:11:14 10° 89° (E) 1,930 ? -23.1°
Enters shadow 07:11:49 10° 97° (E) 1,945 ? -23.1°
